,,Stat5,,Stat1,,Stat2,,Stat3,,Stat4,,Wind1,,Wind1,
time,status,PA1M_AVG,status,PR1M_SUM,status,RH1M_AVG,status,SR1M_AVG,status,TA1M_AVG,status,W1dAve1m,status,W1sAve1m,
2002-10-26, 00:00:00,VALID,918.516,VALID,0,VALID,97.7737,VALID,0,VALID,18.8816,VALID,97,VALID,0.741004,
2002-10-26, 00:01:00,VALID,918.493,VALID,0,VALID,98.1475,VALID,0.0169808,VALID,18.9074,VALID,89,VALID,1.06208,
2002-10-26, 00:02:00,VALID,918.459,VALID,0,VALID,98.4654,VALID,0.0169808,VALID,18.9785,VALID,95,VALID,1.0141,
2002-10-26, 00:03:00,VALID,918.452,VALID,0,VALID,98.6994,VALID,0.0339617,VALID,19.0525,VALID,103,VALID,0.787054,
2002-10-26, 00:04:00,VALID,918.425,VALID,0,VALID,98.6905,VALID,-0.0339617,VALID,19.1178,VALID,81,VALID,0.501202,
2002-10-26, 00:05:00,VALID,918.393,VALID,0,VALID,98.6638,VALID,-0.0169808,VALID,19.1501,VALID,102,VALID,0.397804,
2002-10-26, 00:06:00,VALID,918.367,VALID,0,VALID,98.5277,VALID,-0.0679233,VALID,19.1501,VALID,114,VALID,0.311298,
2002-10-26, 00:07:00,VALID,918.358,VALID,0,VALID,98.4133,VALID,-0.0509425,VALID,19.1275,VALID,116,VALID,0.42103,
2002-10-26, 00:08:00,VALID,918.34,VALID,0,VALID,98.4731,VALID,-0.0849042,VALID,19.1111,VALID,115,VALID,0.833705,
2002-10-26, 00:09:00,VALID,918.334,VALID,0,VALID,98.5964,VALID,-0.0169808,VALID,19.1432,VALID,108,VALID,0.914063,
2002-10-26, 00:10:00,VALID,918.313,VALID,0,VALID,98.4591,VALID,-0.0169808,VALID,19.1494,VALID,87,VALID,0.753801,
2002-10-26, 00:11:00,VALID,918.301,VALID,0,VALID,98.3027,VALID,-0.0339617,VALID,19.1077,VALID,90,VALID,0.832248,
2002-10-26, 00:12:00,VALID,918.284,VALID,0,VALID,98.4413,VALID,0,VALID,19.091,VALID,95,VALID,0.814844,
2002-10-26, 00:13:00,VALID,918.265,VALID,0,VALID,98.4845,VALID,0,VALID,19.098,VALID,94,VALID,0.763557,
2002-10-26, 00:14:00,VALID,918.265,VALID,0,VALID,98.4692,VALID,-0.0169808,VALID,19.1017,VALID,86,VALID,0.875868,
2002-10-26, 00:15:00,VALID,918.257,VALID,0,VALID,98.4781,VALID,-0.0169808,VALID,19.0888,VALID,89,VALID,0.951758,
2002-10-26, 00:16:00,VALID,918.267,VALID,0,VALID,98.468,VALID,-0.0169808,VALID,19.0625,VALID,87,VALID,0.882583,
2002-10-26, 00:17:00,VALID,918.281,VALID,0,VALID,98.4921,VALID,-0.0169808,VALID,19.0366,VALID,92,VALID,0.88683,
2002-10-26, 00:18:00,VALID,918.285,VALID,0,VALID,98.5659,VALID,-0.0169808,VALID,19.053,VALID,105,VALID,0.883213,
2002-10-26, 00:19:00,VALID,918.295,VALID,0,VALID,98.6358,VALID,-0.0169808,VALID,19.0567,VALID,117,VALID,0.766258,
2002-10-26, 00:20:00,VALID,918.294,VALID,0,VALID,98.632,VALID,0,VALID,19.0235,VALID,124,VALID,0.833482,
2002-10-26, 00:21:00,VALID,918.324,VALID,0,VALID,98.6307,VALID,-0.0169808,VALID,19.0177,VALID,132,VALID,0.469752,
2002-10-26, 00:22:00,VALID,918.315,VALID,0,VALID,98.6727,VALID,-0.0169808,VALID,19.0013,VALID,133,VALID,0.538429,
2002-10-26, 00:23:00,VALID,918.308,VALID,0,VALID,98.7019,VALID,0,VALID,18.9852,VALID,142,VALID,0.739583,
2002-10-26, 00:24:00,VALID,918.306,VALID,0,VALID,98.7375,VALID,-0.0169808,VALID,18.979,VALID,145,VALID,0.735547,
2002-10-26, 00:25:00,VALID,918.302,VALID,0,VALID,98.8075,VALID,-0.0339617,VALID,18.966,VALID,135,VALID,0.640165,
2002-10-26, 00:26:00,VALID,918.299,VALID,0,VALID,98.8431,VALID,0,VALID,18.979,VALID,116,VALID,0.434462,
2002-10-26, 00:27:00,VALID,918.293,VALID,0,VALID,98.8507,VALID,-0.0509425,VALID,18.9727,VALID,115,VALID,0.285352,
2002-10-26, 00:28:00,VALID,918.304,VALID,0,VALID,98.8329,VALID,-0.0169808,VALID,18.9437,VALID,113,VALID,0.285937,
2002-10-26, 00:29:00,VALID,918.296,VALID,0,VALID,98.7973,VALID,-0.0339617,VALID,18.9278,VALID,113,VALID,0.257589,
2002-10-26, 00:30:00,VALID,918.295,VALID,0,VALID,98.7859,VALID,-0.0339617,VALID,18.8885,VALID,113,VALID,0.24379,
2002-10-26, 00:31:00,VALID,918.279,VALID,0,VALID,98.9003,VALID,-0.0339617,VALID,18.892,VALID,113,VALID,0.33087,
2002-10-26, 00:32:00,VALID,918.302,VALID,0,VALID,98.9855,VALID,0,VALID,18.9074,VALID,113,VALID,0.379687,
2002-10-26, 00:33:00,VALID,918.287,VALID,0,VALID,99.03,VALID,-0.0339617,VALID,18.9469,VALID,113,VALID,0.418269,
2002-10-26, 00:34:00,VALID,918.281,VALID,0,VALID,99.0402,VALID,-0.0339617,VALID,18.9626,VALID,114,VALID,0.442356,
2002-10-26, 00:35:00,VALID,918.271,VALID,0,VALID,99.0364,VALID,-0.0339617,VALID,18.9723,VALID,125,VALID,0.509332,
2002-10-26, 00:36:00,VALID,918.271,VALID,0,VALID,99.0478,VALID,-0.0849042,VALID,18.9822,VALID,145,VALID,0.536914,
2002-10-26, 00:37:00,VALID,918.261,VALID,0,VALID,99.0694,VALID,-0.0849042,VALID,18.9981,VALID,146,VALID,0.492877,
2002-10-26, 00:38:00,VALID,918.262,VALID,0,VALID,99.0631,VALID,-0.0339617,VALID,19.005,VALID,146,VALID,0.546658,
2002-10-26, 00:39:00,VALID,918.252,VALID,0,VALID,99.0796,VALID,-0.0509425,VALID,19.0249,VALID,146,VALID,0.702148,
2002-10-26, 00:40:00,VALID,918.24,VALID,0,VALID,99.0872,VALID,-0.0169808,VALID,19.0209,VALID,146,VALID,0.5625,
2002-10-26, 00:41:00,VALID,918.239,VALID,0,VALID,99.0364,VALID,-0.0679233,VALID,19.015,VALID,145,VALID,0.609152,
2002-10-26, 00:42:00,VALID,918.232,VALID,0,VALID,99.0427,VALID,-0.0509425,VALID,19.005,VALID,132,VALID,0.569111,
2002-10-26, 00:43:00,VALID,918.238,VALID,0,VALID,99.0389,VALID,-0.0679233,VALID,18.9953,VALID,116,VALID,0.691723,
2002-10-26, 00:44:00,VALID,918.245,VALID,0,VALID,99.0605,VALID,-0.0509425,VALID,19.0018,VALID,114,VALID,0.985045,
2002-10-26, 00:45:00,VALID,918.248,VALID,0,VALID,99.0682,VALID,-0.0509425,VALID,19.002,VALID,108,VALID,1.04167,
2002-10-26, 00:46:00,VALID,918.244,VALID,0,VALID,99.0605,VALID,0.0169808,VALID,19.011,VALID,106,VALID,0.903083,
2002-10-26, 00:47:00,VALID,918.227,VALID,0,VALID,99.0148,VALID,0,VALID,18.9983,VALID,111,VALID,0.798828,
2002-10-26, 00:48:00,VALID,918.221,VALID,0,VALID,99.0084,VALID,0,VALID,18.9949,VALID,106,VALID,0.602148,
2002-10-26, 00:49:00,VALID,918.19,VALID,0,VALID,98.9525,VALID,0,VALID,18.9822,VALID,91,VALID,0.707031,
2002-10-26, 00:50:00,VALID,918.175,VALID,0,VALID,98.9245,VALID,0,VALID,18.9596,VALID,86,VALID,0.647786,
2002-10-26, 00:51:00,VALID,918.148,VALID,0,VALID,98.8812,VALID,0,VALID,18.9333,VALID,76,VALID,0.575195,
2002-10-26, 00:52:00,VALID,918.104,VALID,0,VALID,98.8367,VALID,-0.0169808,VALID,18.9144,VALID,74,VALID,0.67716,
2002-10-26, 00:53:00,VALID,918.104,VALID,0,VALID,98.7986,VALID,-0.0509425,VALID,18.8982,VALID,64,VALID,0.623661,
2002-10-26, 00:54:00,VALID,918.07,VALID,0,VALID,98.749,VALID,-0.0169808,VALID,18.8823,VALID,63,VALID,0.696915,
2002-10-26, 00:55:00,VALID,918.046,VALID,0,VALID,98.7248,VALID,-0.0339617,VALID,18.8657,VALID,63,VALID,0.722762,
2002-10-26, 00:56:00,VALID,918.013,VALID,0,VALID,98.7108,VALID,0,VALID,18.859,VALID,63,VALID,0.758259,
2002-10-26, 00:57:00,VALID,918.004,VALID,0,VALID,98.6574,VALID,0,VALID,18.8692,VALID,63,VALID,0.683894,
2002-10-26, 00:58:00,VALID,917.974,VALID,0,VALID,98.632,VALID,-0.0169808,VALID,18.8588,VALID,63,VALID,0.643792,
2002-10-26, 00:59:00,VALID,917.947,VALID,0,VALID,98.5951,VALID,0,VALID,18.8754,VALID,63,VALID,0.601997,
2002-10-26, 01:00:00,VALID,917.919,VALID,0,VALID,98.5481,VALID,-0.0679233,VALID,18.8692,VALID,63,VALID,0.449219,
2002-10-26, 01:01:00,VALID,917.889,VALID,0,VALID,98.4909,VALID,-0.0169808,VALID,18.8622,VALID,63,VALID,0.450138,
2002-10-26, 01:02:00,VALID,917.848,VALID,0,VALID,98.4502,VALID,-0.0679233,VALID,18.8694,VALID,64,VALID,0.504123,
2002-10-26, 01:03:00,VALID,917.851,VALID,0,VALID,98.4158,VALID,-0.0169808,VALID,18.8826,VALID,67,VALID,0.541602,
2002-10-26, 01:04:00,VALID,917.825,VALID,0,VALID,98.4184,VALID,-0.0679233,VALID,18.8858,VALID,73,VALID,0.808364,
2002-10-26, 01:05:00,VALID,917.81,VALID,0,VALID,98.3662,VALID,-0.0339617,VALID,18.8823,VALID,77,VALID,0.838839,
2002-10-26, 01:06:00,VALID,917.795,VALID,0,VALID,98.2798,VALID,-0.0679233,VALID,18.8855,VALID,78,VALID,0.765425,
2002-10-26, 01:07:00,VALID,917.794,VALID,0,VALID,98.1971,VALID,-0.0169808,VALID,18.8689,VALID,79,VALID,0.680743,
2002-10-26, 01:08:00,VALID,917.799,VALID,0,VALID,98.1463,VALID,-0.0679233,VALID,18.8662,VALID,85,VALID,0.663393,
2002-10-26, 01:09:00,VALID,917.79,VALID,0,VALID,98.0789,VALID,-0.0509425,VALID,18.8666,VALID,87,VALID,0.547476,
2002-10-26, 01:10:00,VALID,917.783,VALID,0,VALID,98.0789,VALID,-0.0169808,VALID,18.8662,VALID,97,VALID,0.491765,
2002-10-26, 01:11:00,VALID,917.804,VALID,0,VALID,98.1259,VALID,-0.101885,VALID,18.883,VALID,100,VALID,0.56684,
2002-10-26, 01:12:00,VALID,917.799,VALID,0,VALID,98.0649,VALID,-0.0169808,VALID,18.889,VALID,91,VALID,0.693164,
2002-10-26, 01:13:00,VALID,917.806,VALID,0,VALID,97.925,VALID,-0.0849042,VALID,18.8793,VALID,75,VALID,0.671415,
2002-10-26, 01:14:00,VALID,917.793,VALID,0,VALID,97.8131,VALID,-0.0339617,VALID,18.8406,VALID,79,VALID,0.792318,
2002-10-26, 01:15:00,VALID,917.807,VALID,0,VALID,97.8207,VALID,-0.0679233,VALID,18.8346,VALID,90,VALID,0.81543,
2002-10-26, 01:16:00,VALID,917.799,VALID,0,VALID,97.9263,VALID,-0.0339617,VALID,18.821,VALID,84,VALID,0.801011,
2002-10-26, 01:17:00,VALID,917.804,VALID,0,VALID,97.9835,VALID,-0.0849042,VALID,18.8011,VALID,78,VALID,0.669643,
2002-10-26, 01:18:00,VALID,917.795,VALID,0,VALID,98.028,VALID,-0.0339617,VALID,18.8048,VALID,93,VALID,0.595353,
2002-10-26, 01:19:00,VALID,917.789,VALID,0,VALID,98.1552,VALID,-0.0849042,VALID,18.8013,VALID,95,VALID,0.488387,
2002-10-26, 01:20:00,VALID,917.778,VALID,0,VALID,98.2365,VALID,-0.0509425,VALID,18.8143,VALID,127,VALID,0.433259,
2002-10-26, 01:21:00,VALID,917.758,VALID,0,VALID,98.3395,VALID,-0.0509425,VALID,18.8113,VALID,132,VALID,0.438902,
2002-10-26, 01:22:00,VALID,917.758,VALID,0,VALID,98.4196,VALID,-0.0509425,VALID,18.8314,VALID,130,VALID,0.687922,
2002-10-26, 01:23:00,VALID,917.758,VALID,0,VALID,98.4947,VALID,-0.0679233,VALID,18.8272,VALID,129,VALID,0.59809,
2002-10-26, 01:24:00,VALID,917.757,VALID,0,VALID,98.5048,VALID,-0.0509425,VALID,18.8473,VALID,121,VALID,0.553906,
2002-10-26, 01:25:00,VALID,917.757,VALID,0,VALID,98.5328,VALID,-0.0849042,VALID,18.844,VALID,121,VALID,0.755285,
2002-10-26, 01:26:00,VALID,917.768,VALID,0,VALID,98.5595,VALID,-0.0679233,VALID,18.8473,VALID,114,VALID,0.87283,
2002-10-26, 01:27:00,VALID,917.747,VALID,0,VALID,98.5977,VALID,-0.0849042,VALID,18.8406,VALID,98,VALID,0.881445,
2002-10-26, 01:28:00,VALID,917.744,VALID,0,VALID,98.6498,VALID,-0.101885,VALID,18.8468,VALID,94,VALID,0.860294,
2002-10-26, 01:29:00,VALID,917.748,VALID,0,VALID,98.6638,VALID,-0.0679233,VALID,18.857,VALID,88,VALID,0.753795,
2002-10-26, 01:30:00,VALID,917.75,VALID,0,VALID,98.6371,VALID,-0.0679233,VALID,18.8503,VALID,89,VALID,0.86238,
2002-10-26, 01:31:00,VALID,917.744,VALID,0,VALID,98.6689,VALID,-0.0679233,VALID,18.8632,VALID,89,VALID,0.837627,
2002-10-26, 01:32:00,VALID,917.744,VALID,0,VALID,98.6307,VALID,-0.0169808,VALID,18.8567,VALID,84,VALID,0.890625,
2002-10-26, 01:33:00,VALID,917.733,VALID,0,VALID,98.5506,VALID,-0.0679233,VALID,18.8239,VALID,82,VALID,0.973357,
2002-10-26, 01:34:00,VALID,917.75,VALID,0,VALID,98.4934,VALID,0.0509425,VALID,18.8039,VALID,87,VALID,1.03421,
2002-10-26, 01:35:00,VALID,917.741,VALID,0,VALID,98.4832,VALID,0.0339617,VALID,18.7875,VALID,89,VALID,0.808377,
2002-10-26, 01:36:00,VALID,917.749,VALID,0,VALID,98.5392,VALID,0.0509425,VALID,18.8004,VALID,94,VALID,0.677539,
2002-10-26, 01:37:00,VALID,917.723,VALID,0,VALID,98.5354,VALID,0.101885,VALID,18.8101,VALID,108,VALID,0.931066,
2002-10-26, 01:38:00,VALID,917.727,VALID,0,VALID,98.5125,VALID,0.0679233,VALID,18.8163,VALID,94,VALID,0.886285,
2002-10-26, 01:39:00,VALID,917.726,VALID,0,VALID,98.4565,VALID,0.0849042,VALID,18.8191,VALID,101,VALID,0.687695,
2002-10-26, 01:40:00,VALID,917.722,VALID,0,VALID,98.4006,VALID,0.0169808,VALID,18.826,VALID,84,VALID,0.456801,
2002-10-26, 01:41:00,VALID,917.711,VALID,0,VALID,98.3573,VALID,0.0509425,VALID,18.8228,VALID,87,VALID,0.68817,
2002-10-26, 01:42:00,VALID,917.718,VALID,0,VALID,98.3179,VALID,0.0169808,VALID,18.8461,VALID,75,VALID,0.550481,
2002-10-26, 01:43:00,VALID,917.722,VALID,0,VALID,98.2187,VALID,0.0339617,VALID,18.8329,VALID,77,VALID,0.598818,
2002-10-26, 01:44:00,VALID,917.722,VALID,0,VALID,98.1564,VALID,0.0509425,VALID,18.8232,VALID,75,VALID,0.779464,
2002-10-26, 01:45:00,VALID,917.721,VALID,0,VALID,98.0483,VALID,0.0339617,VALID,18.8133,VALID,62,VALID,0.809295,
2002-10-26, 01:46:00,VALID,917.705,VALID,0,VALID,97.9021,VALID,0.0509425,VALID,18.7875,VALID,53,VALID,0.945101,
2002-10-26, 01:47:00,VALID,917.683,VALID,0,VALID,97.8474,VALID,0.0339617,VALID,18.7813,VALID,56,VALID,0.946615,
2002-10-26, 01:48:00,VALID,917.679,VALID,0,VALID,97.9046,VALID,0.0679233,VALID,18.7582,VALID,65,VALID,0.859961,
2002-10-26, 01:49:00,VALID,917.662,VALID,0,VALID,97.9962,VALID,0.0169808,VALID,18.788,VALID,72,VALID,0.641774,
2002-10-26, 01:50:00,VALID,917.648,VALID,0,VALID,98.0216,VALID,0.0509425,VALID,18.7875,VALID,79,VALID,0.773872,
2002-10-26, 01:51:00,VALID,917.621,VALID,0,VALID,98.131,VALID,0.0169808,VALID,18.8101,VALID,96,VALID,0.601367,
2002-10-26, 01:52:00,VALID,917.6,VALID,0,VALID,98.2378,VALID,0.0509425,VALID,18.8357,VALID,97,VALID,0.540441,
2002-10-26, 01:53:00,VALID,917.575,VALID,0,VALID,98.2569,VALID,0.0679233,VALID,18.8618,VALID,109,VALID,0.685268,
2002-10-26, 01:54:00,VALID,917.557,VALID,0,VALID,98.3103,VALID,0.0679233,VALID,18.8876,VALID,108,VALID,0.760617,
2002-10-26, 01:55:00,VALID,917.544,VALID,0,VALID,98.2124,VALID,0.0339617,VALID,18.9005,VALID,108,VALID,0.675676,
2002-10-26, 01:56:00,VALID,917.54,VALID,0,VALID,98.22,VALID,0.0339617,VALID,18.9137,VALID,109,VALID,1.04576,
2002-10-26, 01:57:00,VALID,917.543,VALID,0,VALID,98.1882,VALID,0.0339617,VALID,18.9296,VALID,103,VALID,0.555088,
2002-10-26, 01:58:00,VALID,917.536,VALID,0,VALID,98.1106,VALID,0.0339617,VALID,18.933,VALID,100,VALID,1.00655,
2002-10-26, 01:59:00,VALID,917.527,VALID,0,VALID,98.1145,VALID,0.0679233,VALID,18.936,VALID,89,VALID,0.794054,
2002-10-26, 02:00:00,VALID,917.525,VALID,0,VALID,98.0242,VALID,0.0339617,VALID,18.9524,VALID,72,VALID,0.791797,
2002-10-26, 02:01:00,VALID,917.529,VALID,0,VALID,98.0534,VALID,0.0679233,VALID,18.939,VALID,87,VALID,1.03079,
2002-10-26, 02:02:00,VALID,917.537,VALID,0,VALID,97.9886,VALID,0.0509425,VALID,18.9549,VALID,76,VALID,0.978299,
2002-10-26, 02:03:00,VALID,917.531,VALID,0,VALID,97.8195,VALID,0.0339617,VALID,18.9393,VALID,74,VALID,0.717773,
2002-10-26, 02:04:00,VALID,917.532,VALID,0,VALID,97.7203,VALID,-0.0169808,VALID,18.9204,VALID,72,VALID,0.82284,
2002-10-26, 02:05:00,VALID,917.531,VALID,0,VALID,97.7521,VALID,-0.0339617,VALID,18.9107,VALID,60,VALID,0.737946,
2002-10-26, 02:06:00,VALID,917.55,VALID,0,VALID,97.7088,VALID,-0.0339617,VALID,18.9114,VALID,76,VALID,0.771635,
2002-10-26, 02:07:00,VALID,917.546,VALID,0,VALID,97.6758,VALID,0,VALID,18.8952,VALID,71,VALID,0.634291,
2002-10-26, 02:08:00,VALID,917.547,VALID,0,VALID,97.6592,VALID,-0.0169808,VALID,18.8885,VALID,68,VALID,0.440402,
2002-10-26, 02:09:00,VALID,917.564,VALID,0,VALID,97.6834,VALID,-0.0169808,VALID,18.8754,VALID,69,VALID,0.488782,
2002-10-26, 02:10:00,VALID,917.576,VALID,0,VALID,97.7279,VALID,0,VALID,18.8816,VALID,70,VALID,0.308277,
2002-10-26, 02:11:00,VALID,917.569,VALID,0,VALID,97.761,VALID,0.0169808,VALID,18.8818,VALID,70,VALID,0.361111,
2002-10-26, 02:12:00,VALID,917.575,VALID,0,VALID,97.7711,VALID,-0.0339617,VALID,18.8922,VALID,98,VALID,0.433203,
2002-10-26, 02:13:00,VALID,917.567,VALID,0,VALID,97.7927,VALID,-0.0509425,VALID,18.8855,VALID,96,VALID,0.477711,
2002-10-26, 02:14:00,VALID,917.569,VALID,0,VALID,97.8347,VALID,-0.0169808,VALID,18.895,VALID,80,VALID,0.537543,
2002-10-26, 02:15:00,VALID,917.56,VALID,0,VALID,97.8423,VALID,0,VALID,18.898,VALID,72,VALID,0.413281,
2002-10-26, 02:16:00,VALID,917.568,VALID,0,VALID,97.8093,VALID,-0.0169808,VALID,18.9079,VALID,66,VALID,0.332491,
2002-10-26, 02:17:00,VALID,917.552,VALID,0,VALID,97.7788,VALID,-0.0169808,VALID,18.898,VALID,66,VALID,0.354688,
2002-10-26, 02:18:00,VALID,917.534,VALID,0,VALID,97.8067,VALID,-0.0339617,VALID,18.9211,VALID,66,VALID,0.457332,
2002-10-26, 02:19:00,VALID,917.533,VALID,0,VALID,97.8017,VALID,-0.0169808,VALID,18.9208,VALID,71,VALID,0.566723,
2002-10-26, 02:20:00,VALID,917.52,VALID,0,VALID,97.8398,VALID,0,VALID,18.9367,VALID,75,VALID,0.626562,
2002-10-26, 02:21:00,VALID,917.514,VALID,0,VALID,97.7711,VALID,0,VALID,18.94,VALID,82,VALID,0.549479,
2002-10-26, 02:22:00,VALID,917.503,VALID,0,VALID,97.6236,VALID,-0.0339617,VALID,18.9204,VALID,74,VALID,0.497255,
2002-10-26, 02:23:00,VALID,917.474,VALID,0,VALID,97.6109,VALID,0,VALID,18.9111,VALID,73,VALID,0.459201,
2002-10-26, 02:24:00,VALID,917.457,VALID,0,VALID,97.6605,VALID,-0.0169808,VALID,18.9243,VALID,74,VALID,0.285352,
2002-10-26, 02:25:00,VALID,917.454,VALID,0,VALID,97.7101,VALID,0,VALID,18.9243,VALID,74,VALID,0.223346,
2002-10-26, 02:26:00,VALID,917.433,VALID,0,VALID,97.7343,VALID,0,VALID,18.9298,VALID,74,VALID,0.0334201,
2002-10-26, 02:27:00,VALID,917.428,VALID,0,VALID,97.7228,VALID,0,VALID,18.937,VALID,74,VALID,0.000976563,
2002-10-26, 02:28:00,VALID,917.417,VALID,0,VALID,97.6999,VALID,0,VALID,18.94,VALID,74,VALID,0.0804228,
2002-10-26, 02:29:00,VALID,917.41,VALID,0,VALID,97.5804,VALID,-0.0169808,VALID,18.9241,VALID,74,VALID,0.28058,
2002-10-26, 02:30:00,VALID,917.411,VALID,0,VALID,97.6173,VALID,-0.0339617,VALID,18.9213,VALID,309,VALID,0.375,
2002-10-26, 02:31:00,VALID,917.422,VALID,0,VALID,97.6758,VALID,-0.0339617,VALID,18.9104,VALID,289,VALID,0.353885,
2002-10-26, 02:32:00,VALID,917.413,VALID,0,VALID,97.6707,VALID,0,VALID,18.898,VALID,289,VALID,0.103795,
2002-10-26, 02:33:00,VALID,917.416,VALID,0,VALID,97.7126,VALID,0.0169808,VALID,18.9015,VALID,289,VALID,0.0476763,
2002-10-26, 02:34:00,VALID,917.415,VALID,0,VALID,97.6808,VALID,-0.0169808,VALID,18.8918,VALID,289,VALID,0,
2002-10-26, 02:35:00,VALID,917.413,VALID,0,VALID,97.6134,VALID,0,VALID,18.8692,VALID,289,VALID,0,
2002-10-26, 02:36:00,VALID,917.417,VALID,0,VALID,97.5702,VALID,-0.0169808,VALID,18.8599,VALID,289,VALID,0,
2002-10-26, 02:37:00,VALID,917.419,VALID,0,VALID,97.6313,VALID,0,VALID,18.8431,VALID,289,VALID,0.184972,
2002-10-26, 02:38:00,VALID,917.408,VALID,0,VALID,97.7788,VALID,0,VALID,18.8694,VALID,289,VALID,0.328776,
2002-10-26, 02:39:00,VALID,917.398,VALID,0,VALID,97.8996,VALID,0,VALID,18.8818,VALID,289,VALID,0.416992,
2002-10-26, 02:40:00,VALID,917.378,VALID,0,VALID,97.9975,VALID,0.0169808,VALID,18.9079,VALID,289,VALID,0.185432,
2002-10-26, 02:41:00,VALID,917.374,VALID,0,VALID,98.07,VALID,0,VALID,18.9144,VALID,289,VALID,0.110045,
2002-10-26, 02:42:00,VALID,917.36,VALID,0,VALID,98.0928,VALID,0,VALID,18.9171,VALID,289,VALID,0.158654,
2002-10-26, 02:43:00,VALID,917.342,VALID,0,VALID,98.0852,VALID,0,VALID,18.9037,VALID,289,VALID,0.0116132,
2002-10-26, 02:44:00,VALID,917.344,VALID,0,VALID,97.9225,VALID,0,VALID,18.8851,VALID,289,VALID,0,
2002-10-26, 02:45:00,VALID,917.341,VALID,0,VALID,97.7533,VALID,0,VALID,18.8239,VALID,289,VALID,0,
2002-10-26, 02:46:00,VALID,917.336,VALID,0,VALID,97.7457,VALID,-0.0169808,VALID,18.7882,VALID,289,VALID,0,
2002-10-26, 02:47:00,VALID,917.346,VALID,0,VALID,97.8258,VALID,-0.0509425,VALID,18.7854,VALID,289,VALID,0,
2002-10-26, 02:48:00,VALID,917.351,VALID,0,VALID,97.8996,VALID,0,VALID,18.7882,VALID,289,VALID,0,
2002-10-26, 02:49:00,VALID,917.35,VALID,0,VALID,97.9657,VALID,-0.0849042,VALID,18.8021,VALID,289,VALID,0.0365349,
2002-10-26, 02:50:00,VALID,917.354,VALID,0,VALID,98.0064,VALID,-0.101885,VALID,18.8127,VALID,330,VALID,0.291016,
2002-10-26, 02:51:00,VALID,917.362,VALID,0,VALID,97.9898,VALID,-0.101885,VALID,18.8254,VALID,359,VALID,0.332812,
2002-10-26, 02:52:00,VALID,917.358,VALID,0,VALID,98.0115,VALID,-0.101885,VALID,18.8182,VALID,9,VALID,0.418658,
2002-10-26, 02:53:00,VALID,917.357,VALID,0,VALID,98.0534,VALID,-0.0849042,VALID,18.8346,VALID,11,VALID,0.36183,
2002-10-26, 02:54:00,VALID,917.357,VALID,0,VALID,98.1094,VALID,-0.101885,VALID,18.8249,VALID,11,VALID,0.317708,
2002-10-26, 02:55:00,VALID,917.341,VALID,0,VALID,98.1374,VALID,-0.101885,VALID,18.8381,VALID,11,VALID,0.358742,
2002-10-26, 02:56:00,VALID,917.323,VALID,0,VALID,98.1475,VALID,-0.101885,VALID,18.8279,VALID,11,VALID,0.210938,
2002-10-26, 02:57:00,VALID,917.31,VALID,0,VALID,98.1463,VALID,-0.101885,VALID,18.8284,VALID,36,VALID,0.271434,
2002-10-26, 02:58:00,VALID,917.301,VALID,0,VALID,98.0941,VALID,-0.0849042,VALID,18.8125,VALID,117,VALID,0.516681,
2002-10-26, 02:59:00,VALID,917.282,VALID,0,VALID,98.1501,VALID,-0.101885,VALID,18.7991,VALID,143,VALID,0.565972,
2002-10-26, 03:00:00,VALID,917.28,VALID,0,VALID,98.1806,VALID,-0.101885,VALID,18.8055,VALID,162,VALID,0.604883,
2002-10-26, 03:01:00,VALID,917.266,VALID,0,VALID,98.2505,VALID,-0.0679233,VALID,18.8122,VALID,163,VALID,0.560202,
2002-10-26, 03:02:00,VALID,917.264,VALID,0,VALID,98.3014,VALID,-0.101885,VALID,18.8152,VALID,156,VALID,0.413628,
2002-10-26, 03:03:00,VALID,917.255,VALID,0,VALID,98.3624,VALID,-0.118866,VALID,18.8279,VALID,156,VALID,0.278125,
2002-10-26, 03:04:00,VALID,917.245,VALID,0,VALID,98.3968,VALID,-0.0169808,VALID,18.853,VALID,156,VALID,0.0870864,
2002-10-26, 03:05:00,VALID,917.242,VALID,0,VALID,98.3929,VALID,0,VALID,18.8622,VALID,156,VALID,0.00379464,
2002-10-26, 03:06:00,VALID,917.233,VALID,0,VALID,98.3523,VALID,0,VALID,18.8821,VALID,156,VALID,0,
2002-10-26, 03:07:00,VALID,917.239,VALID,0,VALID,98.3179,VALID,0.0169808,VALID,18.8647,VALID,156,VALID,0,
2002-10-26, 03:08:00,VALID,917.25,VALID,0,VALID,98.2976,VALID,0.0339617,VALID,18.8816,VALID,156,VALID,0,
2002-10-26, 03:09:00,VALID,917.268,VALID,0,VALID,98.2747,VALID,0.0169808,VALID,18.8818,VALID,154,VALID,0.383213,
2002-10-26, 03:10:00,VALID,917.257,VALID,0,VALID,98.2315,VALID,0.0169808,VALID,18.8816,VALID,142,VALID,0.674198,
2002-10-26, 03:11:00,VALID,917.257,VALID,0,VALID,98.1908,VALID,0,VALID,18.8952,VALID,140,VALID,0.629991,
2002-10-26, 03:12:00,VALID,917.268,VALID,0,VALID,98.1196,VALID,0,VALID,18.8818,VALID,126,VALID,0.700977,
2002-10-26, 03:13:00,VALID,917.263,VALID,0,VALID,98.0776,VALID,0,VALID,18.8756,VALID,123,VALID,0.68773,
2002-10-26, 03:14:00,VALID,917.263,VALID,0,VALID,98.0649,VALID,0,VALID,18.8756,VALID,103,VALID,0.750651,
2002-10-26, 03:15:00,VALID,917.271,VALID,0,VALID,98.07,VALID,0.0339617,VALID,18.8818,VALID,96,VALID,0.689648,
2002-10-26, 03:16:00,VALID,917.245,VALID,0,VALID,97.9987,VALID,0,VALID,18.8816,VALID,91,VALID,0.66682,
2002-10-26, 03:17:00,VALID,917.247,VALID,0,VALID,98.0191,VALID,0,VALID,18.8851,VALID,92,VALID,0.618527,
2002-10-26, 03:18:00,VALID,917.242,VALID,0,VALID,98.028,VALID,0.0169808,VALID,18.8922,VALID,104,VALID,0.733574,
2002-10-26, 03:19:00,VALID,917.236,VALID,0,VALID,98.0445,VALID,-0.0849042,VALID,18.883,VALID,106,VALID,0.339949,
2002-10-26, 03:20:00,VALID,917.236,VALID,0,VALID,98.0916,VALID,-0.101885,VALID,18.8962,VALID,107,VALID,0.432143,
2002-10-26, 03:21:00,VALID,917.242,VALID,0,VALID,98.0903,VALID,-0.0849042,VALID,18.8962,VALID,108,VALID,0.513822,
2002-10-26, 03:22:00,VALID,917.232,VALID,0,VALID,98.0827,VALID,-0.0849042,VALID,18.8863,VALID,110,VALID,0.349451,
2002-10-26, 03:23:00,VALID,917.225,VALID,0,VALID,98.0611,VALID,-0.101885,VALID,18.8736,VALID,110,VALID,0.315972,
2002-10-26, 03:24:00,VALID,917.219,VALID,0,VALID,98.0979,VALID,-0.0849042,VALID,18.8607,VALID,115,VALID,0.370703,
2002-10-26, 03:25:00,VALID,917.223,VALID,0,VALID,98.1641,VALID,-0.101885,VALID,18.8636,VALID,121,VALID,0.299862,
2002-10-26, 03:26:00,VALID,917.215,VALID,0,VALID,98.2378,VALID,-0.118866,VALID,18.884,VALID,124,VALID,0.245226,
2002-10-26, 03:27:00,VALID,917.226,VALID,0,VALID,98.2734,VALID,-0.135847,VALID,18.88,VALID,177,VALID,0.296875,
2002-10-26, 03:28:00,VALID,917.224,VALID,0,VALID,98.2874,VALID,-0.118866,VALID,18.8897,VALID,184,VALID,0.169577,
2002-10-26, 03:29:00,VALID,917.226,VALID,0,VALID,98.248,VALID,-0.101885,VALID,18.8865,VALID,218,VALID,0.349554,
2002-10-26, 03:30:00,VALID,917.248,VALID,0,VALID,98.262,VALID,-0.101885,VALID,18.8768,VALID,240,VALID,0.555489,
2002-10-26, 03:31:00,VALID,917.24,VALID,0,VALID,98.3116,VALID,-0.101885,VALID,18.8733,VALID,242,VALID,0.4394,
2002-10-26, 03:32:00,VALID,917.266,VALID,0,VALID,98.3332,VALID,-0.101885,VALID,18.8773,VALID,242,VALID,0.450446,